Simultaneous Nadir Overpasses (SNOs) Predictions

Prediction of SNOs between GOES-16 and NOAA-19 Satellite Orbit:

Table of predicted SNOs for the next 14.0 days since TLE Epoch: 6/17/2023
Index Date Time (GOES-16) GOES-16 Lat,Lon NOAA-19 Lat,Lon Distance(km) Time Diff (sec)
1 06/17/2023 13:43:33 -0.01, -75.20 0.31, -76.56 154.64 80
2 06/18/2023 13:28:51 -0.02, -75.21 -0.40, -73.64 180.28 80
3 06/21/2023 01:51:37 0.03, -75.23 -0.72, -78.41 363.46 80
4 06/22/2023 01:39:35 0.03, -75.24 -0.01, -75.48 28.02 80
5 06/23/2023 01:24:53 0.04, -75.25 0.65, -72.55 307.70 80
6 06/25/2023 13:47:39 -0.04, -75.29 0.42, -77.33 232.59 80
7 06/26/2023 13:32:56 -0.05, -75.31 -0.25, -74.39 103.90 80
8 06/27/2023 13:20:54 -0.05, -75.32 -0.93, -71.46 440.52 80
9 06/29/2023 01:55:43 0.04, -75.35 -0.86, -79.17 436.70 80
10 06/30/2023 01:43:42 0.05, -75.37 -0.13, -76.25 100.12 80
